Regional Weather Roundup
Issued by NWS

Home | Current Version | Previous Version | Graphics & Text | Print | Product List | Glossary On
Versions: 1 2 3 4 5 6 7 8 9 10 11 12 13 14 15 16 17 18 19 20 21 22 23 24 25 26 27 28 29 30 31 32 33 34 35 36 37 38 39 40 41 42 43 44 45 46 47 48 49 50
000
ASUS43 KMPX 231601
RWRMN
WEATHER ROUNDUP FOR MINNESOTA
NATIONAL WEATHER SERVICE TWIN CITIES/CHANHASSEN MN
1100 AM CDT SAT SEP 23 2017


NOTE: "FAIR" INDICATES FEW OR NO CLOUDS BELOW 12,000 FEET WITH NO
SIGNIFICANT WEATHER AND/OR OBSTRUCTIONS TO VISIBILITY. N/A MEANS
CURRENT SKY AND/OR WEATHER CONDITIONS ARE NOT AVAILABLE.

MNZ060>063-068>070-231700-
   Twin Cities Metro

CITY           SKY/WX    TMP DP  RH WIND       PRES   REMARKS
TWIN CITIES    MOSUNNY   81  70  69 S9        29.96F
ST PAUL        SUNNY     80  70  71 S6        29.96F
CRYSTAL        SUNNY     80  67  64 SW9       29.94F
BLAINE         MOSUNNY   82  70  65 S9        29.95F
LAKEVILLE      MOSUNNY   79  70  73 SW3       29.98S
EDEN PRAIRIE   SUNNY     80  70  71 S9        29.96S
SOUTH ST PAUL  SUNNY     81  68  63 SW5       29.97S
LAKE ELMO      FAIR      81  72  74 S8        29.98F
$$
MNZ001>005-007-008-013>017-022>024-027-028-231700-
   Northwest Minnesota

CITY           SKY/WX    TMP DP  RH WIND       PRES   REMARKS
BEMIDJI        CLOUDY    53  52  98 NW10      30.00R
HALLOCK          N/A     55  48  76 NW14      30.04R
ROSEAU         CLOUDY    52  46  82 W10       30.00S HAZE
WARROAD        CLOUDY    54  48  82 NW8       30.00S
CROOKSTON      CLOUDY    54  48  82 N9        30.04R
FOSSTON        CLOUDY    50  48  93 W7        30.02S
DETROIT LAKES  CLOUDY    52  50  93 NW9       30.02R
MOORHEAD       CLOUDY    54  48  82 N13       30.02R
PARK RAPIDS    CLOUDY    56  53  90 W5        29.99R
MAHNOMEN       CLOUDY    51  49  95 NW10      30.00F
$$
MNZ006-009>011-018-025>026-231700-
   North Central Minnesota

CITY           SKY/WX    TMP DP  RH WIND       PRES   REMARKS
BAUDETTE       CLOUDY    54  53  97 W9        29.97S
FLAG ISLAND    CLOUDY    54  52  94 NW9       29.97R
INTL FALLS     CLOUDY    57  55  93 W8G20     29.94R
WASKISH        CLOUDY    55  54  94 W7          N/A
BIG FORK       CLOUDY    59  55  88 W5        29.99R
LONGVILLE      CLOUDY    59  57  94 W6        29.99R
GRAND RAPIDS   CLOUDY    64  62  93 NW14      29.99R
CRANE LAKE     CLOUDY    63  61  94 S6        29.95R
ORR            CLOUDY    63  57  82 CALM      29.87F
COOK           CLOUDY    61  59  94 NW3       29.93F
WALKER         CLOUDY    55  54  94 NW7       30.00R
$$
MNZ012-019>021-037-231700-
   Northeast Minnesota

CITY           SKY/WX    TMP DP  RH WIND       PRES   REMARKS
DULUTH         PTSUNNY   76  71  85 SW10      29.95S
ELY            CLOUDY    68  66  94 SW7       29.93R
HIBBING        MOSUNNY   68  66  93 VRB5      29.93S
EVELETH        CLOUDY    70  64  79 SW5       29.94F
DULUTH HARBOR  MOSUNNY   81  72  74 SW12      29.92S
GRAND MARAIS     N/A     67  63  87 SW6       29.91R
$$
MNZ029>031-032-039>041-046>048-054>057-064-231700-
   West Central Minnesota

CITY           SKY/WX    TMP DP  RH WIND       PRES   REMARKS
FERGUS FALLS   CLOUDY    54  54 100 N8        30.02R
WHEATON        CLOUDY    54  50  87 N7        30.04R
ALEXANDRIA     CLOUDY    61  58  90 N5        30.02R
ELBOW LAKE     LGT RAIN  54  54  99 N7        30.01R
WADENA         CLOUDY    55  55 100 NW3       30.00R
GLENWOOD       CLOUDY    63  59  88 W6        30.01R
APPLETON       CLOUDY    59  54  82 NW8       30.01R
BENSON         CLOUDY    63  55  77 N10       30.02R
ORTONVILLE     CLOUDY    55  52  88 N7        30.02R
MADISON        CLOUDY    61  61 100 N9        30.01R
WILLMAR        FAIR      66  61  82 CALM      29.99S
$$
MNZ033>034-036-042>043-049>051-058-059-231700-
   Central Minnesota

CITY           SKY/WX    TMP DP  RH WIND       PRES   REMARKS
ST CLOUD       MOSUNNY   78  71  79 S10       29.95R
SAUK CENTRE    CLOUDY    63  61  92 CALM      29.98S
PAYNESVILLE    CLOUDY    73  64  73 SW3       29.98R
AITKIN         CLOUDY    72  64  78 W5        29.95R
PINE RIVER     CLOUDY    57  55  94 NW3       30.02S
BRAINERD       CLOUDY    65  63  93 W9        29.97R
STAPLES        CLOUDY    59  55  88 CALM      29.98S
LITTLE FALLS   CLOUDY    70  61  73 W5        29.98R
LITCHFIELD     MOSUNNY   77  70  78 CALM      29.97R
BUFFALO        SUNNY     78  68  70 S8        29.97R
MAPLE LAKE     MOSUNNY   79  72  77 S6        29.97R
HUTCHINSON     SUNNY     75  69  82 S6        29.98R
$$
MNZ037-044-045-052-053-231700-
   East Central Minnesota

CITY           SKY/WX    TMP DP  RH WIND       PRES   REMARKS
PRINCETON      MOSUNNY   82  72  69 S9        29.95R
MORA           MOSUNNY   75  68  78 S7        29.96S
RUSH CITY      MOSUNNY   80  69  70 S8        29.95S
MOOSE LAKE     MOSUNNY   77  68  73 SW6       29.93R
HINCKLEY       FAIR      79  72  78 S8        29.95S
CLOQUET        PTSUNNY   77  66  69 S8        29.95S
MCGREGOR       PTSUNNY   77  68  73 SE6       29.94F
$$
MNZ071>073-080-081-089-090-097-098-231700-
   Southwest Minnesota

CITY           SKY/WX    TMP DP  RH WIND       PRES   REMARKS
MONTEVIDEO     CLOUDY    64  63  94 N6        30.00R
GRANITE FALLS  CLOUDY    66  59  78 W5        30.00S
CANBY          CLOUDY    59  56  90 NW6       30.02R
MARSHALL       CLOUDY    65  58  78 CALM      29.99S
REDWOOD FALLS  CLOUDY    72  62  71 S9        29.97S
OLIVIA         PTSUNNY   70  61  73 CALM      29.97R
PIPESTONE      MOSUNNY   70  63  78 SE10      29.98R
WORTHINGTON    CLOUDY    67  62  84 E6        30.00S
JACKSON        CLOUDY    77  66  69 CALM      30.00S
TRACY          CLOUDY    67  61  81 SE6       29.99S
SLAYTON        CLOUDY    64  51  63 E5        30.01S
$$
MNZ065>067-074>077-082>085-091>093-231700-
   South Central Minnesota

CITY           SKY/WX    TMP DP  RH WIND       PRES   REMARKS
MANKATO        CLOUDY    77  69  76 SW5       30.00R
NEW ULM        CLOUDY    73  66  78 S3        29.98S
ST JAMES       MOSUNNY   75  68  78 CALM      29.99S
FAIRMONT       SUNNY     80  69  69 SW9       30.00R
FARIBAULT      MOSUNNY   81  70  69 SW9       30.00S
OWATONNA       MOSUNNY   82  70  65 S7        30.00S
WASECA         SUNNY     79  68  69 S9        30.02R
ALBERT LEA     SUNNY     84  70  61 S8        30.01S
$$
MNZ078>079-086>088-094>096-231700-
   Southeast Minnesota

CITY           SKY/WX    TMP DP  RH WIND       PRES   REMARKS
ROCHESTER      SUNNY     84  69  60 S13       30.03S
RED WING       MOSUNNY   82  66  57 SW3       29.98S
STANTON        MOSUNNY   80  69  67 SW9       29.98S
DODGE CENTER   MOSUNNY   82  66  57 SW12      30.02S
WINONA         SUNNY     82  66  57 SW5       30.02S
AUSTIN         SUNNY     81  68  65 SW10      30.03R
PRESTON        SUNNY     83  67  58 S13       30.04F
$$
ABBREVIATIONS USED IN REMARKS
   TC - TEMPERATURES IN CELSIUS
  WCI - WIND CHILL INDEX
   HX - HEAT INDEX
  VSB - VISIBILITY
$$



USA.gov is the U.S. government's official web portal to all federal, state and local government web resources and services.